GPS BIII-3 (PRN 23)

Last updated on July 6, 2021, 3:39 p.m. UTC

1 45854U 20041A   21186.38115243 -.00000063  00000-0  00000-0 0  9998
2 45854  55.2739 100.1508 0011864 158.9966 201.0541  2.00565628  7776
UTC
Height (km)
Latitude
Longitude
Inclination
Orbital Period
UTC large
Height (km)
Speed (km/s)
/
Latitude / Longitude
Inclination (degrees)
Orbital Period (minutes)
Azimuth
Elevation
Range (km)
Doppler Factor
iOS Compass Heading
iOS Angle